Weather History for Hyderabad, India

Change the Weather History Date:

Wednesday, May 22, 2013

  Actual Average Record
Temperature  
Mean Temperature 98 °F -  
Max Temperature 111 °F 92 °F 111 °F (2013)
Min Temperature 86 °F 77 °F 75 °F (1999)
Cooling Degree Days 34    
Growing Degree Days 48 (Base 50)    
Moisture  
Dew Point 51 °F    
Average Humidity 17    
Maximum Humidity 35    
Minimum Humidity 8    
Precipitation  
Precipitation 0.00 in 0.13 in - ()
Sea Level Pressure  
Sea Level Pressure 29.66 in    
Wind  
Wind Speed 6 mph ()    
Max Wind Speed 17 mph    
Max Gust Speed -    
Visibility 4.6 miles    
Events      
Averages and records for this station are not official NWS values.
T = Trace of Precipitation, MM = Missing Value Source: Averaged Metar Reports

Daily Weather History Graph

Daily Weather History Graph

Search for Another Location

Airport:

Trip Planner

Search our weather history database for the weather conditions in past years. The results will help you decide how hot, cold, wet, or windy it might be!

Date:

Astronomy

May. 22, 2013 Rise Set
Actual Time 5:42 AM IST 6:43 PM IST
Civil Twilight 5:18 AM IST 7:07 PM IST
Nautical Twilight 4:51 AM IST 7:34 PM IST
Astronomical Twilight 4:22 AM IST 8:03 PM IST
Moon 3:55 PM IST (5/22) 3:01 AM IST (5/22)
Length of Visible Light 13h 48m
Length of Day
13h 01m
Waxing Gibbous, 88% of the Moon is Illuminated
May 22
Waxing Gibbous
May 25
Full
Jun 1
Last Quarter
Jun 8
New
Jun 16
First Quarter

Hourly Weather History & Observations

Time (IST) Temp. Heat Index Dew Point Humidity Pressure Visibility Wind Dir Wind Speed Gust Speed Precip Events Conditions
2:30 AM 92 °F - 62 °F 27% 29.57 in 6 mi WNW 6.9 mph - -   Partly Cloudy
5:30 AM 88 °F - 64 °F 35% 29.60 in 6 mi WNW 9.2 mph - -   Partly Cloudy
6:10 AM 87.8 °F 86.5 °F 57.2 °F 35% 29.77 in 1.9 mi West 15.0 mph - N/A   Haze
8:30 AM 94 °F - 64 °F 28% 29.65 in 6 mi West 3.5 mph - -  
10:10 AM 100.4 °F 98.8 °F 55.4 °F 22% 29.80 in 5.0 mi WNW 15.0 mph - N/A   Unknown
11:10 AM 105.8 °F - 46.4 °F 14% 29.80 in 5.0 mi NW 17.3 mph - N/A   Unknown
11:30 AM 105 °F - 53 °F 10% 29.59 in 6 mi NW 5.8 mph - -   Scattered Clouds
12:10 PM 107.6 °F - 46.4 °F 13% 29.77 in 5.0 mi NNW 9.2 mph - N/A   Unknown
1:10 PM 111.2 °F - 42.8 °F 10% 29.74 in 5.0 mi NE 6.9 mph - N/A   Unknown
2:30 PM 109 °F - 57 °F 11% 29.49 in 6 mi NW 3.5 mph - -   Clear
3:10 PM 114.8 °F - 41.0 °F 8% 29.68 in 5.0 mi WNW 8.1 mph - N/A   Unknown
4:10 PM 114.8 °F - 39.2 °F 8% 29.65 in 5.0 mi North 3.5 mph - N/A   Unknown
5:10 PM 111.2 °F - 41.0 °F 9% 29.68 in 4.3 mi NE 5.8 mph - N/A   Unknown
5:30 PM 108 °F - 61 °F 14% 29.47 in 6 mi North 3.5 mph - -   Partly Cloudy
6:10 PM 107.6 °F - 44.6 °F 12% 29.68 in 3.7 mi North 5.8 mph - N/A   Scattered Clouds
7:10 PM 102.2 °F - 42.8 °F 13% 29.68 in 3.7 mi Calm Calm - N/A   Scattered Clouds
8:30 PM 95 °F - 48 °F 12% 29.56 in 2 mi Calm Calm - -   Scattered Clouds
9:10 PM 91.4 °F - 48.2 °F 23% 29.74 in 3.7 mi Calm Calm - N/A   Partly Cloudy
11:30 PM 94 °F - 53 °F 16% 29.58 in 2 mi Calm Calm - -   Partly Cloudy